Regional Weather Roundup
Issued by NWS

Home | Current Version | Previous Version | Text Only | Print | Product List | Glossary On
Versions: 1 2 3 4 5 6 7 8 9 10 11 12 13 14 15 16 17 18 19 20 21 22 23 24 25 26 27 28 29 30 31 32 33 34 35 36 37 38 39 40 41 42 43 44 45 46 47 48 49
000
ASPQ40 PGUM 200712
RWRPQ
WEATHER ROUNDUP FOR THE MARIANAS AND MICRONESIA
NATIONAL WEATHER SERVICE TIYAN GU
500 PM CHST SAT SEP 20 2014

GUZ001>004-200800-
MARIANA ISLANDS-

CITY           SKY/WX    TMP DP  RH WIND       PRES   REMARKS
GUAM AIRPORT   PTSUNNY   86  79  79 E7        29.78S HX  99
ANDERSEN AFB   MOSUNNY   82  77  83 E9        29.78S HX  91
ROTA AIRPORT   PTSUNNY   82  79  89 E7        29.78R HX  93
TINIAN AP      PTSUNNY   84  77  79 NE9       29.75S HX  94
SAIPAN AP      MOSUNNY   84  77  79 E9        29.77R HX  94

$$

PMZ161-200800-
REPUBLIC OF PALAU-

CITY           SKY/WX    TMP DP  RH WIND       PRES   REMARKS
KOROR AP       LGT RAIN  82  77  83 N9        29.81S HX  91
KOROR WSO      LGT RAIN  84  77  79 N8        29.80S HX  94

$$

PMZ171>174-200800-
FEDERATED STATES OF MICRONESIA-

CITY           SKY/WX    TMP DP  RH WIND       PRES   REMARKS
YAP AIRPORT    NOT AVBL
CHUUK AP       PTSUNNY   86  79  79 VRB3      29.73R HX  99
POHNPEI AP     NOT AVBL
POHNPEI WSO    PTCLDY    82  77  83 S6        29.78R HX  91
KOSRAE AP      NOT AVBL

$$

PMZ181-200800-
REPUBLIC OF THE MARSHALL ISLANDS-

CITY           SKY/WX    TMP DP  RH WIND       PRES   REMARKS
KWAJALEIN AP   CLEAR     84  73  70 E5        29.78R HX  91
MAJURO AP      NOT AVBL
MAJURO WSO     MOCLDY    82  75  78 CALM      29.77R

$$



USA.gov is the U.S. government's official web portal to all federal, state and local government web resources and services.